Regional Weather Roundup
Issued by NWS State College, PA

Home | Current Version | Previous Version | Text Only | Print | Product List | Glossary On
Versions: 1 2 3 4 5 6 7 8 9 10 11 12 13 14 15 16 17 18 19 20 21 22 23 24 25 26 27 28 29 30 31 32 33 34 35 36 37 38 39 40 41 42 43 44 45 46 47 48 49 50
000
ASUS41 KCTP 300810
RWRCTP

REGIONAL WEATHER ROUNDUP
NATIONAL WEATHER SERVICE STATE COLLEGE PA
400 AM EDT SUN APR 30 2017

Note: "fair" indicates few or no clouds below 12,000 feet with no
significant weather and/or obstructions to visibility.

* = STATION THAT DOES NOT REPORT PRECIPITATION /E.G. RAIN...SNOW...ETC/
    THUNDER OR FOG.

PAZ002>004-007>009-013>016-020>023-029>032-300900-
WESTERN PENNSYLVANIA

CITY           SKY/WX    TMP DP  RH WIND       PRES   REMARKS
ERIE           CLOUDY    46  41  82 E12       30.08F
MEADVILLE      CLOUDY    51  48  89 E10       30.06F
FRANKLIN*      CLOUDY    52  46  82 E8        30.08F
NEW CASTLE     FAIR      54  53  97 VRB5      30.04F
BEAVER COUNTY  NOT AVBL
BUTLER*        CLOUDY    55  54  94 NE8       30.06F
PITTSBURGH INT CLOUDY    59  58  96 NE5       30.04S
PITTSBURGH     CLEAR     60  55  83 NE6       30.03F
INDIANA*       MOCLDY    59  57  94 E7G14     30.09S
LATROBE        CLEAR     59  59 100 N3        30.03F
WASHINGTON CO* CLOUDY    57  55  94 NE3       30.06R
$$

PAZ004>006-010>012-017>019-024>028-033>037-041-042-045-046-049>053-300900-
CENTRAL PENNSYLVANIA

CITY           SKY/WX    TMP DP  RH WIND       PRES   REMARKS
BRADFORD       CLOUDY    47  46  97 SE7       30.14R
DUBOIS         CLOUDY    54  50  86 E9        30.10F
CLEARFIELD     CLOUDY    55  53  93 NE6       30.12F
JOHNSTOWN      PTCLDY    57  57 100 E7        30.09F FOG
ALTOONA        PTCLDY    61  57  87 NE6       30.11F
STATE COLLEGE  CLOUDY    55  52  90 NE7       30.14S
WILLIAMSPORT   CLEAR     56  45  66 NE6       30.15F
SELINSGROVE    CLEAR     55  52  89 N5        30.15F
FT INDIANTOWN  CLEAR     60  59  99 E3        30.13S
CAPITAL CITY   CLEAR     64  56  75 E5        30.12R
HARRISBURG     PTCLDY    64  58  80 E8        30.12R
YORK           MOCLDY    64  61  90 NE5       30.11S
$$

PAZ038>040-043-044-047-048-054-055-060>062-067>071-300900-
EASTERN PENNSYLVANIA

CITY           SKY/WX    TMP DP  RH WIND       PRES   REMARKS
SCRANTON       CLEAR     53  38  56 N8        30.18F
MOUNT POCONO   CLEAR     50  39  66 N5        30.16S
ALLENTOWN      CLEAR     57  49  74 NE5       30.15R
QUAKERTOWN*    MOSUNNY   59  54  82 CALM      30.16S
READING        CLEAR     62  53  72 NE6       30.14R
LANCASTER      CLOUDY    63  60  90 E3        30.14R
COATESVILLE    CLOUDY    63  55  77 CALM      30.15S
POTTSTOWN      PTCLDY    59  55  87 NE3       30.16R
BLUE BELL      PTCLDY    61  54  77 CALM      30.16R
DOYLESTOWN     PTCLDY    61  52  72 N5        30.14R
WILLOW GROVE   NOT AVBL
NORTH PHILA    MOCLDY    65  56  72 NE7       30.15R
PHILADELPHIA   MOCLDY    68  56  65 NE7       30.14R
$$




USA.gov is the U.S. government's official web portal to all federal, state and local government web resources and services.